Погода в Светловодске

Погода в Светловодске : погода сейчас, прогноз погоды и архив. Всё, что Вы хотите узнать о погоде в Светловодске!

Хотите узнать прогноз погоды в Светловодске? Тогда Вам сюда: Погода в Светловодске

Поиск расширенной информации на нашем сайте:

Другие новости

Новости СМИ2

Главная страница сайта

Новости сайта

03.07.2017

Напоминаем, что на нашем специализированном сайте Метеоцентр.Азия вы можете получить высокодетализированные автоматические прогнозы погоды по пунктам России, СНГ и мира в авиационном формате (включающие направление и скорость ветра, видимость, явления погоды, количество и форму облачности, нижнюю и верхнюю границу облачности).

Рекомендуем: Свежая информация стол обеденный италия на нашем сайте.

Погода в Светловодске - сегодня

Время (UTC), дата Ветер
(°,м/с) 
Видим.   Явления Облачность Т
(°С)
Тd
(°С)
f(%) Тe
(°С)
Pmin
(гПа)
dP
(гПа)
Po
(мм)
O2
(г/м3)
Тmin Tmax R s Состояние
почвы
15 17.10.17 310 (СЗ) 4000 м  дымка  9/8 600 м средняя 
[Sc|Ac trans]
+12.9 +12 94 +17  1020.9  0.3  758  289           
18 17.10.17 290 (З) 4100 м  дымка  1/0 средняя 
[Ac trans]
+12.4 +11.6 95 +16  1021.7  0.8  759  290    +13.6  0.0     
21 17.10.17 300 (СЗ) 2500 м  дымка  ясно 
+11.8 +11.2 96 +16  1022.3  0.6  759  291           
00 18.10.17 260 (З) 0800 м  туман  ясно 
+11.2 +10.8 97 +14  1022.3  759  292           
03 18.10.17 тихо ()   0700 м  туман  ясно 
+10.1 +9.9 99 +11  1022.4  759  293           
06 18.10.17 280 (З) 1000 м  дымка  ясно 
+10.6 +10.4 99 +13  1022.8  0.4  759  293  +7.6         
09 18.10.17 270 (З) 10 км    ясно 
+15 +11.5 80 +19  1021.7  -0.9  759  288           
12 18.10.17 240 (ЮЗ) 10 км    8/0 верхняя 
[Ci fib]
+16.9 +12.4 75 +22  1020.5  -1.1  758  285           
15 18.10.17 210 (ЮЗ) 10 км    8/0 верхняя 
[Ci fib]
+16.4 +11.6 73 +20  1018.7  -1.8  757  285           
18 18.10.17 190 (Ю) 15000 м    ясно 
+14.8 +10.6 76 +17  1018.2  -0.6  756  287    +18.6       
21 18.10.17 220 (ЮЗ) 7000 м  дымка  ясно 
+12.6 +10.7 88 +15  1017.7  -0.5  756  289           
00 19.10.17 240 (ЮЗ) 11000 м    ясно 
+14.8 +11.8 82 +18  1016.8  -0.8  755  286           
03 19.10.17 250 (З) 2400 м  дымка  ясно 
+10.4 +9.6 95 +13  1016.7  -0.3  755  291           
06 19.10.17 230 (ЮЗ) 0500 м  туман  ?/?  
+10.8 +10.4 97 +14  1016.9  0.2  755  291  +10.4         
09 19.10.17 280 (З) 4000 м  дымка{туман}  10/0 средняя, верхняя 
[Ac und|Ci fib]
+14 +11.8 87 +18  1017.4  0.6  755  287           
12 19.10.17 240 (ЮЗ) 10 км  {туман}  10/0 верхняя 
[Ci fib]
+18 +12.4 70 +23  1016.7  -0.5  755  283           
15 19.10.17 140 (ЮВ) 10 км    10/0 средняя, верхняя 
[Ac und|Ci sp]
+17 +13.1 78 +23  1016.1  -0.7  755  284           
18 19.10.17 150 (ЮВ) 7000 м  дымка  ясно 
+13.7 +12.2 91 +18  1016.6  0.4  755  287    +19.3       
21 19.10.17 140 (ЮВ) 1000 м  дымка  ясно 
+11.6 +11 96 +15  1016  -0.7  754  290           
00 20.10.17 120 (ЮВ) 0700 м  туман  ?/?  
+10.8 +10.6 99 +13  1016  754  290           
03 20.10.17 090 (В) 0500 м  туман  ?/?  
+9.8 +9.8 100 +11  1016.5  0.5  755  292           
06 20.10.17 120 (ЮВ) 0200 м  слаб. морось{туман}  ?/?  
+9.8 +9.8 100 +11  1017.3  0.8  755  292  +9.4    0.3     
09 20.10.17 060 (СВ) 0500 м  слаб. морось{туман}  ?/?  
+11.3 +11.1 99 +14  1018.2  0.9  756  290           
12 20.10.17 050 (СВ) 2000 м  дымка{морось, туман}  10/10 420 м 
[St]
+12.2 +11.4 95 +16  1018.4  0.2  756  289      0.3     
15 20.10.17 060 (СВ) 2000 м  дымка  10/10 800 м 
[Sc]
+12.4 +11.1 92 +16  1018.4  756  289           
Время (UTC), дата Ветер
(°,м/с) 
Видим.   Явления Облачность Т
(°С)
Тd
(°С)
f(%) Тe
(°С)
Pmin
(гПа)
dP
(гПа)
Po
(мм)
O2
(г/м3)
Тmin Tmax R s Состояние
почвы

Для получения пояснительной информации подведите курсор к названию столбца.

ПОГОДА в Светловодске - архив

Всё, что Вы хотите узнать о погоде в Светловодске - удобно и подробно!

Выберите нужную дату (начиная с 1 января 2015* года) и нажмите кнопку "Найти".
Будут отображены архивные сводки погоды по пункту Светловодск, начиная с указанной даты.


Отображать данные в формате CSV (для использования в таблицах Excel)


Внимание! Наш архив погоды предназначен исключительно для личного некоммерческого использования в познавательных целях. Если Вам необходимы официальные справки о состоянии погоды (для производственных, юридических, коммерческих и т.п. целей), обращайтесь в органы Росгидромета.

*Примечание: данная дата относится к архиву по метеостанциям СССР (Россия, СНГ, Балтия).
Архив по метеостанциям Зарубежной Европы и Азии (кроме Китая) хранится 10 дней, по другим регионам земного шара (Китай, Африка, Америка, Австралия, Океания) - 1 день.

Светловодск - район местоположения метеостанции


Название, широта, долгота, высота метеостанции:
Светловодск 49.1°ш. 33.2°д. 84 м над ур. моря [Украина]

Дополнительная информация

В oтличие oт бoльшинства пoгoдных сайтoв мы публикуем пoдрoбную метеoинфoрмацию в детальнoм прoфессиoнальнoм фoрмате.

Характеристики температуры и влажнoсти вoздуха измеряются на высoте 2 м в тени вдали oт зданий и деревьев.
Скoрoсть ветра измеряется на высoте 10 м (на урoвне рoста челoвека скoрoсть ветра ниже в 1.5-2 раза). Если метеoстанция нахoдится в гoрoде или в лесу, тo скoрoсть ветра занижена на 2-4 м/с пo сравнению с oткрытым местoм. Скoрoсть ветра над акватoриями крупных рек и oзёр, а также на вершинах хoлмoв на 2-5 м/с выше, чем в oбычных услoвиях.
Атмoсфернoе давление в разных тoчках местнoсти мoжет значительнo oтличаться oт давления на метеoстанции, в зависимoсти oт услoвий рельефа (при пoдъёме на 10 м давление пoнижается примернo на 1 мм рт.ст.).